GW4883 Weather Reports


Display with metric or nautical units.
time (UTC)temp
F
wind
direction
speed
MPH
gust
MPH
rain 1hr
in
rain 24hr
in
rain mn
in
humidity
%
barometer
mb
20260510033504 76 113 2.0 4.0 0.00 0.00 0.00 60 1009.3
20260510033012 76 169 2.0 4.0 0.00 0.00 0.00 60 1009.4
20260510032506 76 119 1.0 4.0 0.00 0.00 0.00 60 1009.4
20260510032004 77 178 2.0 4.0 0.00 0.00 0.00 61 1009.3
20260510031510 77 144 1.0 4.0 0.00 0.00 0.00 61 1009.3
20260510031005 77 130 1.0 4.0 0.00 0.00 0.00 61 1009.4
20260510030503 77 100 1.0 4.0 0.00 0.00 0.00 60 1009.3
20260510030011 77 86 2.0 4.0 0.00 0.00 0.00 60 1009.3
20260510025504 77 128 1.0 6.0 0.00 0.00 0.00 60 1009.3
20260510025009 78 113 2.0 6.0 0.00 0.00 0.00 60 1009.2
20260510024512 78 102 1.0 6.0 0.00 0.00 0.00 60 1009.1
20260510024005 78 119 2.0 7.0 0.00 0.00 0.00 60 1009.0
20260510023504 78 111 2.0 7.0 0.00 0.00 0.00 60 1008.9
20260510023030 78 106 2.0 7.0 0.00 0.00 0.00 60 1008.9
20260510022504 78 118 3.0 7.0 0.00 0.00 0.00 59 1008.8
20260510022004 79 109 2.0 6.0 0.00 0.00 0.00 59 1008.8
20260510021511 79 128 3.0 8.0 0.00 0.00 0.00 58 1008.8
20260510021004 79 113 3.0 8.0 0.00 0.00 0.00 58 1008.9
20260510020506 79 121 2.0 7.0 0.00 0.00 0.00 57 1008.7
20260510020009 80 124 3.0 8.0 0.00 0.00 0.00 57 1008.6
20260510015504 80 110 3.0 8.0 0.00 0.00 0.00 56 1008.6
20260510015003 80 136 2.0 7.0 0.00 0.00 0.00 56 1008.6
20260510014512 80 130 2.0 7.0 0.00 0.00 0.00 55 1008.5
20260510014004 80 185 3.0 6.0 0.00 0.00 0.00 55 1008.4
20260510013507 81 208 2.0 7.0 0.00 0.00 0.00 54 1008.3
20260510013014 81 130 2.0 6.0 0.00 0.00 0.00 53 1008.3
20260510012503 82 115 1.0 6.0 0.00 0.00 0.00 52 1008.3
20260510012003 82 171 1.0 5.0 0.00 0.00 0.00 52 1008.3
20260510011518 83 175 1.0 5.0 0.00 0.00 0.00 51 1008.1
20260510011008 83 123 2.0 4.0 0.00 0.00 0.00 51 1008.1
20260510010505 83 148 2.0 6.0 0.00 0.00 0.00 50 1008.0
20260510010016 84 87 1.0 7.0 0.00 0.00 0.00 50 1007.9
20260510005507 84 107 2.0 7.0 0.00 0.00 0.00 49 1007.9
20260510005004 84 43 1.0 7.0 0.00 0.00 0.00 49 1007.9
20260510004513 85 103 3.0 7.0 0.00 0.00 0.00 48 1007.9
20260510004004 85 136 2.0 7.0 0.00 0.00 0.00 48 1007.9
20260510003507 86 119 2.0 7.0 0.00 0.00 0.00 47 1007.9
20260510003016 86 117 2.0 8.0 0.00 0.00 0.00 47 1007.9
20260510002504 87 140 3.0 8.0 0.00 0.00 0.00 46 1007.9
20260510002006 87 111 2.0 10.0 0.00 0.00 0.00 45 1007.9
20260510001516 88 100 2.0 10.0 0.00 0.00 0.00 45 1007.9
20260510001004 88 111 3.0 7.0 0.00 0.00 0.00 43 1007.9
20260510000504 88 92 3.0 7.0 0.00 0.00 0.00 43 1007.9
20260510000007 89 140 2.0 4.0 0.00 0.00 0.00 42 1007.9
20260509235503 89 114 1.0 4.0 0.00 0.00 0.00 41 1008.0
20260509235003 89 111 2.0 6.0 0.00 0.00 0.00 42 1008.0
20260509234511 89 128 2.0 7.0 0.00 0.00 0.00 42 1008.0
20260509234004 89 219 3.0 7.0 0.00 0.00 0.00 42 1008.0
20260509233505 89 103 2.0 4.0 0.00 0.00 0.00 42 1008.1
20260509233016 89 97 1.0 8.0 0.00 0.00 0.00 41 1008.1
20260509232504 90 117 3.0 8.0 0.00 0.00 0.00 40 1008.2
20260509232004 90 181 2.0 6.0 0.00 0.00 0.00 40 1008.1
20260509231515 90 135 1.0 6.0 0.00 0.00 0.00 39 1008.1
20260509231003 90 207 3.0 5.0 0.00 0.00 0.00 40 1008.2
20260509230507 90 192 1.0 5.0 0.00 0.00 0.00 40 1008.1
20260509230005 90 102 2.0 4.0 0.00 0.00 0.00 41 1008.2
20260509225504 89 105 0.0 4.0 0.00 0.00 0.00 42 1008.3
20260509225003 89 158 0.0 3.0 0.00 0.00 0.00 41 1008.3
20260509224508 89 130 1.0 6.0 0.00 0.00 0.00 39 1008.3
20260509224003 91 148 2.0 6.0 0.00 0.00 0.00 39 1008.2
20260509223506 91 91 2.0 6.0 0.00 0.00 0.00 39 1008.1
20260509223014 91 140 1.0 6.0 0.00 0.00 0.00 40 1008.2
20260509222504 91 101 2.0 5.0 0.00 0.00 0.00 39 1008.2
20260509222005 91 183 1.0 4.0 0.00 0.00 0.00 40 1008.2
20260509221524 91 46 1.0 3.0 0.00 0.00 0.00 40 1008.2
20260509221004 90 88 0.0 3.0 0.00 0.00 0.00 41 1008.2
20260509220508 90 194 1.0 6.0 0.00 0.00 0.00 41 1008.3
20260509220019 90 161 2.0 5.0 0.00 0.00 0.00 40 1008.3
20260509215504 90 203 1.0 7.0 0.00 0.00 0.00 40 1008.4
20260509214959 90 128 2.0 8.0 0.00 0.00 0.00 40 1008.5
20260509214509 90 207 3.0 8.0 0.00 0.00 0.00 38 1008.5
20260509214007 90 167 2.0 6.0 0.00 0.00 0.00 39 1008.5
20260509213505 90 91 2.0 6.0 0.00 0.00 0.00 39 1008.4
20260509213012 91 230 1.0 5.0 0.00 0.00 0.00 39 1008.6
20260509212504 90 171 2.0 5.0 0.00 0.00 0.00 41 1008.6
20260509212004 90 148 1.0 6.0 0.00 0.00 0.00 42 1008.6
20260509211532 90 226 2.0 6.0 0.00 0.00 0.00 40 1008.6
20260509211007 90 184 2.0 5.0 0.00 0.00 0.00 40 1008.7
20260509210508 90 170 3.0 5.0 0.00 0.00 0.00 41 1008.8
20260509210020 90 188 2.0 6.0 0.00 0.00 0.00 41 1008.9
20260509205506 90 201 3.0 8.0 0.00 0.00 0.00 41 1008.9
20260509205012 90 121 3.0 8.0 0.00 0.00 0.00 41 1009.0
20260509204520 89 360 2.0 4.0 0.00 0.00 0.00 40 1009.0
20260509204006 89 340 1.0 7.0 0.00 0.00 0.00 43 1009.1
20260509203504 89 20 2.0 7.0 0.00 0.00 0.00 40 1009.2
20260509203017 89 102 2.0 5.0 0.00 0.00 0.00 43 1009.3
20260509202507 89 185 0.0 3.0 0.00 0.00 0.00 45 1009.3
20260509202004 89 211 1.0 3.0 0.00 0.00 0.00 41 1009.3
20260509201515 89 325 1.0 4.0 0.00 0.00 0.00 41 1009.4
20260509201004 89 69 1.0 7.0 0.00 0.00 0.00 43 1009.4
20260509200507 88 16 2.0 7.0 0.00 0.00 0.00 42 1009.5
20260509200020 88 297 1.0 7.0 0.00 0.00 0.00 41 1009.5
20260509195506 88 176 2.0 4.0 0.00 0.00 0.00 42 1009.6
20260509195008 88 288 1.0 4.0 0.00 0.00 0.00 43 1009.7
20260509194521 88 329 0.0 4.0 0.00 0.00 0.00 46 1009.7
20260509194005 87 121 0.0 4.0 0.00 0.00 0.00 44 1009.8
20260509193507 88 349 2.0 4.0 0.00 0.00 0.00 44 1009.9
20260509193024 87 121 1.0 4.0 0.00 0.00 0.00 48 1009.9
20260509192503 87 252 2.0 3.0 0.00 0.00 0.00 47 1010.0
20260509192003 87 276 1.0 7.0 0.00 0.00 0.00 48 1010.1
20260509191513 86 267 2.0 7.0 0.00 0.00 0.00 47 1010.3
20260509191011 87 281 3.0 7.0 0.00 0.00 0.00 48 1010.2
20260509190504 86 159 1.0 5.0 0.00 0.00 0.00 49 1010.1
20260509190021 86 190 1.0 8.0 0.00 0.00 0.00 48 1010.1
20260509185508 86 278 1.0 8.0 0.00 0.00 0.00 48 1010.3
20260509185008 86 287 2.0 7.0 0.00 0.00 0.00 49 1010.4
20260509184525 86 327 1.0 4.0 0.00 0.00 0.00 1010.3
20260509184007 86 157 1.0 7.0 0.00 0.00 0.00 51 1010.4
20260509183510 85 245 3.0 7.0 0.00 0.00 0.00 51 1010.5
20260509183024 85 242 3.0 6.0 0.00 0.00 0.00 53 1010.7
20260509182504 85 333 1.0 3.0 0.00 0.00 0.00 51 1010.8
20260509182007 85 292 2.0 6.0 0.00 0.00 0.00 53 1010.9
20260509181509 84 279 1.0 6.0 0.00 0.00 0.00 55 1011.0
20260509181004 84 252 2.0 5.0 0.00 0.00 0.00 55 1011.0
20260509180504 83 199 2.0 6.0 0.00 0.00 0.00 54 1011.1
20260509180017 82 165 1.0 6.0 0.00 0.00 0.00 56 1011.1
20260509175506 82 300 2.0 7.0 0.00 0.00 0.00 56 1011.2
20260509175006 82 360 1.0 7.0 0.00 0.00 0.00 57 1011.2
20260509174520 82 223 3.0 7.0 0.00 0.00 0.00 55 1011.2
20260509174005 82 305 2.0 7.0 0.00 0.00 0.00 56 1011.3
20260509173506 82 352 1.0 4.0 0.00 0.00 0.00 55 1011.2
20260509173023 82 252 2.0 5.0 0.00 0.00 0.00 56 1011.2
20260509172508 82 223 3.0 9.0 0.00 0.00 0.00 57 1011.3
20260509172010 81 230 3.0 9.0 0.00 0.00 0.00 57 1011.3
20260509171525 82 291 3.0 8.0 0.00 0.00 0.00 57 1011.4
20260509171005 81 305 2.0 6.0 0.00 0.00 0.00 58 1011.5
20260509170507 81 288 2.0 7.0 0.00 0.00 0.00 56 1011.6
20260509170014 81 316 2.0 8.0 0.00 0.00 0.00 58 1011.5
20260509165506 81 322 4.0 7.0 0.00 0.00 0.00 59 1011.4
20260509165003 80 232 2.0 7.0 0.00 0.00 0.00 60 1011.5
20260509164519 81 274 3.0 7.0 0.00 0.00 0.00 56 1011.6
20260509164008 81 283 3.0 6.0 0.00 0.00 0.00 58 1011.7
20260509163510 80 213 2.0 8.0 0.00 0.00 0.00 58 1011.9
20260509163029 81 290 4.0 8.0 0.00 0.00 0.00 57 1011.7
20260509162509 81 173 1.0 7.0 0.00 0.00 0.00 58 1011.7
20260509162011 80 274 3.0 6.0 0.00 0.00 0.00 58 1011.7
20260509161527 80 185 1.0 7.0 0.00 0.00 0.00 60 1011.8
20260509161008 80 275 3.0 8.0 0.00 0.00 0.00 58 1011.8
20260509160510 80 290 3.0 8.0 0.00 0.00 0.00 57 1011.9
20260509160024 80 279 3.0 6.0 0.00 0.00 0.00 57 1011.9
20260509155506 79 229 3.0 6.0 0.00 0.00 0.00 59 1011.8
20260509155003 79 329 3.0 7.0 0.00 0.00 0.00 60 1011.6
20260509154517 79 279 3.0 8.0 0.00 0.00 0.00 61 1011.6
20260509154006 79 314 2.0 8.0 0.00 0.00 0.00 61 1011.5
20260509153509 79 338 1.0 7.0 0.00 0.00 0.00 62 1011.5
20260509153024 79 250 2.0 7.0 0.00 0.00 0.00 64 1011.6
20260509152507 78 277 2.0 5.0 0.00 0.00 0.00 67 1011.7
20260509152011 78 255 1.0 5.0 0.00 0.00 0.00 66 1011.7
20260509151528 78 19 2.0 5.0 0.00 0.00 0.00 66 1011.7
20260509151004 77 284 2.0 7.0 0.00 0.00 0.00 68 1011.7
20260509150503 77 286 2.0 7.0 0.00 0.00 0.00 70 1011.7
20260509150009 76 302 3.0 9.0 0.00 0.00 0.00 70 1011.8
20260509145506 76 302 2.0 9.0 0.00 0.00 0.00 71 1011.6
20260509145007 75 329 1.0 5.0 0.00 0.00 0.00 71 1011.6
20260509144514 75 311 1.0 7.0 0.00 0.00 0.00 71 1011.6
20260509144004 75 308 2.0 7.0 0.00 0.00 0.00 74 1011.7
20260509143504 74 313 2.0 7.0 0.00 0.00 0.00 73 1011.8
20260509143028 74 337 3.0 6.0 0.00 0.00 0.00 72 1011.9
20260509142500 73 341 1.0 4.0 0.00 0.00 0.00 75 1011.9
20260509141959 73 280 2.0 4.0 0.00 0.00 0.00 76 1011.9
20260509141503 72 248 1.0 4.0 0.00 0.00 0.00 79 1011.9
20260509141006 71 5 2.0 4.0 0.00 0.00 0.00 78 1012.0
20260509140503 71 257 1.0 4.0 0.00 0.00 0.00 79 1012.0
20260509140007 71 295 1.0 5.0 0.00 0.00 0.00 80 1011.9
20260509135505 70 309 0.0 8.0 0.00 0.00 0.00 80 1011.9
20260509135004 70 9 2.0 9.0 0.00 0.00 0.00 80 1011.8
20260509134513 70 11 4.0 9.0 0.00 0.00 0.00 79 1011.6
20260509134004 70 318 4.0 9.0 0.00 0.00 0.00 80 1011.6
20260509133504 69 336 3.0 9.0 0.00 0.00 0.00 80 1011.5
20260509133016 68 338 3.0 8.0 0.00 0.00 0.00 81 1011.6
20260509132507 67 12 4.0 8.0 0.00 0.00 0.00 81 1011.6
20260509132009 67 24 3.0 7.0 0.00 0.00 0.00 81 1011.7
20260509131503 66 350 3.0 7.0 0.00 0.00 0.00 82 1011.7
20260509131001 65 360 3.0 4.0 0.00 0.00 0.00 82 1011.6
20260509130505 65 352 2.0 3.0 0.00 0.00 0.00 83 1011.7
20260509130013 64 352 1.0 3.0 0.00 0.00 0.00 83 1011.8
20260509125504 64 341 1.0 2.0 0.00 0.00 0.00 84 1011.7
20260509125004 64 332 0.0 2.0 0.00 0.00 0.00 85 1011.7
20260509124511 63 302 0.0 2.0 0.00 0.00 0.00 85 1011.7
20260509124005 63 338 0.0 2.0 0.00 0.00 0.00 85 1011.6
20260509123504 63 333 1.0 2.0 0.00 0.00 0.00 85 1011.5
20260509123018 63 171 0.0 1.0 0.00 0.00 0.00 85 1011.7
20260509122508 63 171 0.0 0.0 0.00 0.00 0.00 84 1011.8
20260509122008 62 171 0.0 0.0 0.00 0.00 0.00 84 1011.6
20260509121523 63 171 0.0 0.0 0.00 0.00 0.00 83 1011.6
20260509121007 63 171 0.0 1.0 0.00 0.00 0.00 83 1011.6
20260509120508 63 171 0.0 3.0 0.00 0.00 0.00 83 1011.3
20260509120013 63 173 0.0 3.0 0.00 0.00 0.00 82 1011.3
20260509115503 63 127 2.0 3.0 0.00 0.00 0.00 81 1011.6
20260509115005 63 153 0.0 2.0 0.00 0.00 0.00 81 1011.4
20260509114508 64 153 0.0 2.0 0.00 0.00 0.00 81 1011.2
20260509114009 64 153 1.0 2.0 0.00 0.00 0.00 80 1011.3
20260509113505 64 231 0.0 2.0 0.00 0.00 0.00 79 1011.0
20260509113014 65 282 0.0 2.0 0.00 0.00 0.00 79 1010.7
20260509112506 65 266 1.0 3.0 0.00 0.00 0.00 78 1010.7
20260509112005 65 297 0.0 3.0 0.00 0.00 0.00 78 1010.5
20260509111519 66 251 0.0 2.0 0.00 0.00 0.00 77 1010.3
20260509111005 66 288 1.0 3.0 0.00 0.00 0.00 76 1010.1
20260509110510 66 22 0.0 9.0 0.00 0.00 0.00 77 1010.0
20260509110025 66 19 2.0 9.0 0.00 0.00 0.00 77 1009.8
20260509105507 66 5 3.0 6.0 0.00 0.00 0.00 77 1009.8
20260509105003 66 17 2.0 6.0 0.00 0.00 0.00 77 1009.7
20260509104509 66 5 2.0 5.0 0.00 0.00 0.00 78 1009.8
20260509104003 66 352 2.0 6.0 0.00 0.00 0.00 81 1009.9
20260509103504 65 27 3.0 6.0 0.00 0.00 0.00 84 1010.0
20260509103012 65 10 2.0 5.0 0.00 0.00 0.00 85 1010.1
20260509102504 65 63 2.0 5.0 0.00 0.00 0.00 85 1010.0
20260509102006 64 22 3.0 5.0 0.00 0.00 0.00 85 1010.3
20260509101518 64 352 2.0 4.0 0.00 0.00 0.00 85 1010.4
20260509101008 64 360 2.0 3.0 0.00 0.00 0.00 85 1010.3
20260509100505 65 5 0.0 2.0 0.00 0.00 0.00 85 1010.4
20260509100023 64 5 2.0 5.0 0.00 0.00 0.00 85 1010.4
20260509095508 64 9 1.0 7.0 0.00 0.00 0.00 85 1010.4
20260509095009 64 352 3.0 7.0 0.00 0.00 0.00 85 1010.4
20260509094525 64 22 3.0 11.0 0.00 0.00 0.00 85 1010.3
20260509094010 64 333 3.0 12.0 0.00 0.00 0.00 85 1010.4
20260509093505 64 352 5.0 12.0 0.00 0.00 0.00 86 1010.2
20260509093009 64 15 7.0 15.0 0.00 0.00 0.00 86 1010.5
20260509092504 64 350 6.0 15.0 0.00 0.00 0.00 86 1010.2
20260509092003 65 336 4.0 10.0 0.00 0.00 0.00 88 1010.3
20260509091526 64 207 3.0 9.0 0.00 0.00 0.00 87 1008.1
20260509091003 64 206 2.0 5.0 0.00 0.00 0.00 86 1008.0
20260509090506 64 202 1.0 7.0 0.00 0.00 0.00 85 1007.4
20260509090021 64 149 2.0 10.0 0.00 0.00 0.00 84 1006.7
20260509085508 63 195 3.0 10.0 0.00 0.00 0.00 83 1006.4
20260509085005 63 202 4.0 10.0 0.00 0.00 0.00 81 1006.3
20260509084529 63 160 5.0 10.0 0.00 0.00 0.00 79 1006.4
20260509084008 64 102 2.0 7.0 0.00 0.00 0.00 78 1007.1
20260509083508 64 136 3.0 7.0 0.00 0.00 0.00 77 1008.0
20260509083027 64 153 2.0 4.0 0.00 0.00 0.00 76 1008.5
20260509082503 64 122 1.0 4.0 0.00 0.00 0.00 75 1008.6
20260509082004 65 123 1.0 6.0 0.00 0.00 0.00 75 1009.0
20260509081511 65 167 1.0 14.0 0.00 0.00 0.00 75 1009.6
20260509081005 65 242 4.0 14.0 0.00 0.00 0.00 74 1009.5
20260509080504 66 251 3.0 9.0 0.00 0.00 0.00 73 1009.6
20260509080024 67 232 1.0 4.0 0.00 0.00 0.00 75 1009.4
20260509075505 67 263 0.0 2.0 0.00 0.00 0.00 74 1009.1
20260509075010 67 301 0.0 0.0 0.00 0.00 0.00 73 1009.1
20260509074522 67 301 0.0 0.0 0.00 0.00 0.00 72 1009.2
20260509074007 68 301 0.0 0.0 0.00 0.00 0.00 72 1009.3
20260509073508 68 301 0.0 1.0 0.00 0.00 0.00 71 1009.5
20260509073046 68 301 0.0 4.0 0.00 0.00 0.00 70 1009.6
20260509072508 68 311 0.0 5.0 0.00 0.00 0.00 69 1009.6
20260509072012 68 76 2.0 5.0 0.00 0.00 0.00 70 1009.8
20260509071511 68 48 3.0 5.0 0.00 0.00 0.00 70 1010.2
20260509071004 68 47 1.0 4.0 0.00 0.00 0.00 70 1010.7
20260509070506 67 352 1.0 4.0 0.00 0.00 0.00 70 1011.3
20260509070019 67 352 1.0 8.0 0.00 0.00 0.00 70 1011.7
20260509065507 67 14 3.0 12.0 0.00 0.00 0.00 71 1012.0
20260509065008 67 346 6.0 12.0 0.00 0.00 0.00 72 1012.5
20260509064519 67 352 5.0 18.0 0.00 0.00 0.00 75 1012.7
20260509064008 68 5 7.0 18.0 0.00 0.00 0.00 75 1012.7
20260509063508 69 258 6.0 13.0 0.00 0.00 0.00 84 1013.1
20260509063029 68 344 7.0 15.0 0.00 0.00 0.00 87 1013.3
20260509062513 68 292 3.0 16.0 0.00 0.00 0.00 88 1013.4
20260509062011 68 275 8.0 16.0 0.00 0.00 0.00 90 1013.5
20260509061527 68 349 3.0 6.0 0.00 0.00 0.00 90 1013.4
20260509061005 68 331 2.0 5.0 0.00 0.00 0.00 90 1013.0
20260509060508 68 15 2.0 5.0 0.00 0.00 0.00 90 1012.7
20260509060016 68 299 1.0 5.0 0.00 0.00 0.00 90 1012.3
20260509055508 68 315 1.0 7.0 0.00 0.00 0.00 90 1012.5
20260509055005 68 315 0.0 10.0 0.00 0.00 0.00 90 1012.4
20260509054527 68 342 4.0 10.0 0.00 0.00 0.00 90 1012.8
20260509054005 68 5 2.0 5.0 0.00 0.00 0.00 90 1012.5
20260509053504 68 28 2.0 4.0 0.00 0.00 0.00 90 1012.2
20260509053025 68 13 0.0 4.0 0.00 0.00 0.00 89 1011.8
20260509052508 68 13 2.0 4.0 0.00 0.00 0.00 89 1011.8
20260509052000 68 360 2.0 4.0 0.00 0.00 0.00 89 1011.7
20260509051505 68 117 0.0 2.0 0.00 0.00 0.00 89 1011.2
20260509051004 68 117 0.0 3.0 0.00 0.00 0.00 89 1011.1
20260509050507 68 117 0.0 3.0 0.00 0.00 0.00 89 1011.0
20260509050011 68 126 0.0 2.0 0.00 0.00 0.00 89 1011.0
20260509045504 68 106 1.0 2.0 0.00 0.00 0.00 88 1011.1
20260509045005 68 106 0.0 4.0 0.00 0.00 0.00 88 1011.1
20260509044517 68 76 0.0 4.0 0.00 0.00 0.00 88 1011.1
20260509044005 68 84 1.0 2.0 0.00 0.00 0.00 88 1011.2
20260509043507 68 111 0.0 3.0 0.00 0.00 0.00 88 1010.9
20260509043036 68 84 0.0 3.0 0.00 0.00 0.00 88 1010.8
20260509042508 69 61 1.0 3.0 0.00 0.00 0.00 88 1010.9
20260509042012 69 71 1.0 3.0 0.00 0.00 0.00 88 1010.7
20260509041529 69 61 1.0 3.0 0.00 0.00 0.00 87 1010.5
20260509041012 69 60 0.0 4.0 0.00 0.00 0.00 87 1010.5
20260509040503 69 128 1.0 4.0 0.00 0.00 0.00 87 1010.4
20260509040008 69 147 1.0 5.0 0.00 0.00 0.00 87 1010.3
20260509035506 69 142 1.0 5.0 0.00 0.00 0.00 87 1010.2
20260509035005 69 194 2.0 5.0 0.00 0.00 0.00 87 1010.2
20260509034514 69 149 2.0 5.0 0.00 0.00 0.00 87 1010.2
20260509034004 69 155 2.0 6.0 0.00 0.00 0.00 87 1010.2